TimeEST,TemperatureF,Dew PointF,Humidity,Sea Level PressureIn,VisibilityMPH,Wind Direction,Wind SpeedMPH,Gust SpeedMPH,PrecipitationIn,Events,Conditions,WindDirDegrees,DateUTC
12:54 AM,33.1,23.0,66,30.32,10.0,Calm,Calm,-,N/A,,Partly Cloudy,0,2012-02-29 05:54:00
1:54 AM,34.0,23.0,64,30.27,10.0,Calm,Calm,-,N/A,,Mostly Cloudy,0,2012-02-29 06:54:00
2:54 AM,36.0,21.9,57,30.25,10.0,Calm,Calm,-,N/A,,Overcast,0,2012-02-29 07:54:00
3:54 AM,36.0,21.9,57,30.20,10.0,ENE,12.7,-,N/A,,Overcast,60,2012-02-29 08:54:00
4:54 AM,37.0,21.9,54,30.19,10.0,ENE,15.0,-,N/A,,Overcast,60,2012-02-29 09:54:00
5:54 AM,37.0,21.9,54,30.17,10.0,ENE,16.1,-,N/A,,Overcast,60,2012-02-29 10:54:00
6:54 AM,37.9,21.9,53,30.15,10.0,ENE,11.5,-,N/A,,Overcast,70,2012-02-29 11:54:00
7:54 AM,36.0,26.1,67,30.15,7.0,ENE,11.5,-,0.04,Rain-Snow,Light Snow,60,2012-02-29 12:54:00
8:08 AM,35.6,26.6,70,30.12,2.0,East,11.5,-,0.01,Rain-Snow,Light Snow,80,2012-02-29 13:08:00
8:26 AM,35.6,28.4,75,30.12,3.0,East,12.7,-,0.02,Snow,Light Snow,90,2012-02-29 13:26:00
8:38 AM,33.8,28.4,81,30.13,1.5,East,12.7,-,0.02,Snow,Light Snow,80,2012-02-29 13:38:00
8:54 AM,33.1,30.0,89,30.14,1.5,ENE,12.7,-,0.03,Snow,Light Snow,70,2012-02-29 13:54:00
9:14 AM,33.8,30.2,87,30.11,0.8,ENE,12.7,-,0.02,Snow,Light Snow,70,2012-02-29 14:14:00
9:45 AM,33.8,30.2,87,30.08,0.8,ENE,13.8,-,0.12,Snow,Snow,70,2012-02-29 14:45:00
9:52 AM,33.8,30.2,87,30.07,1.2,ENE,15.0,-,0.15,Rain-Snow,Snow,70,2012-02-29 14:52:00
9:54 AM,33.1,30.9,92,30.09,1.5,ENE,15.0,-,0.16,Rain-Snow,Snow,70,2012-02-29 14:54:00
10:01 AM,33.8,30.2,87,30.06,2.0,East,13.8,-,0.01,Rain,Ice Pellets,80,2012-02-29 15:01:00
10:20 AM,33.8,30.2,87,30.04,1.8,ENE,17.3,23.0,0.05,Rain,Ice Pellets,70,2012-02-29 15:20:00
10:34 AM,33.8,30.2,87,30.03,2.0,ENE,16.1,-,N/A,Rain,Ice Pellets,60,2012-02-29 15:34:00
10:54 AM,34.0,32.0,92,30.01,3.0,ENE,17.3,26.5,0.09,Rain,Ice Pellets,70,2012-02-29 15:54:00
11:54 AM,35.1,32.0,89,29.99,3.0,ENE,17.3,24.2,0.02,Rain,Rain,60,2012-02-29 16:54:00
12:49 PM,35.6,33.8,93,29.93,2.0,NE,12.7,-,0.01,Rain,Light Rain,50,2012-02-29 17:49:00
12:54 PM,35.1,33.1,92,29.95,1.8,NE,12.7,-,0.01,Rain,Light Rain,40,2012-02-29 17:54:00
1:02 PM,35.6,33.8,93,29.93,2.5,ENE,12.7,18.4,0.00,Rain,Light Rain,60,2012-02-29 18:02:00
1:25 PM,35.6,33.8,93,29.93,4.0,ENE,10.4,-,0.01,Rain,Light Rain,70,2012-02-29 18:25:00
1:54 PM,36.0,34.0,93,29.92,3.0,ENE,11.5,-,0.02,Rain,Light Rain,60,2012-02-29 18:54:00
2:54 PM,37.9,35.1,89,29.88,4.0,ENE,13.8,-,0.01,Rain,Light Rain,60,2012-02-29 19:54:00
3:54 PM,37.9,36.0,93,29.85,5.0,ENE,13.8,-,0.01,,Overcast,70,2012-02-29 20:54:00
4:54 PM,37.9,36.0,93,29.82,8.0,East,12.7,-,N/A,,Overcast,80,2012-02-29 21:54:00
5:54 PM,39.0,36.0,89,29.83,10.0,East,11.5,-,N/A,,Overcast,80,2012-02-29 22:54:00
6:54 PM,37.9,36.0,93,29.80,10.0,East,18.4,24.2,N/A,,Overcast,80,2012-02-29 23:54:00
7:45 PM,39.2,35.6,87,29.76,9.0,East,17.3,23.0,N/A,,Overcast,80,2012-03-01 00:45:00
7:54 PM,39.0,36.0,89,29.78,5.0,East,16.1,23.0,N/A,,Overcast,80,2012-03-01 00:54:00
8:54 PM,39.0,37.0,93,29.75,6.0,ENE,16.1,20.7,N/A,,Overcast,70,2012-03-01 01:54:00
9:54 PM,39.0,37.0,93,29.71,3.0,ENE,12.7,-,N/A,,Overcast,60,2012-03-01 02:54:00
10:54 PM,39.2,37.4,93,29.66,4.0,ENE,11.5,-,N/A,,Overcast,60,2012-03-01 03:54:00
11:54 PM,39.0,37.0,93,29.64,8.0,ENE,9.2,-,N/A,,Overcast,60,2012-03-01 04:54:00